Location: Pulvis Stellarum Observatory
(41.6962°N, 71.4263°W)
Time: 02:49:56
(UTC-05:00)

Daily predictions for brighter satellites

Satellite Brightness Start Highest point End
(mag) Time Altitude Azimuth Time Altitude Azimuth Time Altitude Azimuth
Cosmos 2056 Rocket 3.9 04:19:12 55° NE 04:19:35 57° ENE 04:24:36 10° SE
Cosmos 1238 Rocket 4.1 04:24:54 51° S 04:24:54 51° S 04:29:24 10° S
SL-16 R/B 3.9 04:27:06 20° N 04:27:06 20° N 04:28:52 10° NNE
USA 215 3.8 04:21:00 10° NE 04:27:23 55° SE 04:32:45 15° SSW
ADEOS II 4.5 04:24:59 10° N 04:25:04 10° N 04:25:04 10° N
COSMO-SKYMED 1 3.7 04:28:13 10° SE 04:32:17 41° ENE 04:34:13 26° NNE
Cosmos 1624 Rocket 4.0 04:32:26 70° N 04:33:01 82° ENE 04:38:20 10° SSE
Cosmos 44 Rocket 3.6 04:34:58 38° S 04:36:54 69° ESE 04:42:00 10° NE
Cosmos 1371 Rocket 3.9 04:38:36 72° SW 04:38:36 72° SW 04:43:33 10° S
CENTAUR R/B 3.7 04:41:19 28° NNW 04:41:19 28° NNW 04:46:18 10° NNE
USA 32 4.0 04:43:48 61° SW 04:43:48 61° SW 04:48:22 10° S
Cosmos 1602 4.4 04:39:26 10° S 04:43:17 56° E 04:47:11 10° NNE
BREEZE-M DEB (TANK) 4.4 04:42:56 35° SSW 04:44:54 64° SE 04:57:49 10° ENE
SL-08 ROCKET BODY 4.2 04:39:12 10° SSW 04:45:05 63° W 04:50:56 10° N
Lacrosse 5 1.8 04:44:47 61° SW 04:45:42 87° SE 04:50:50 10° NE
Okean 1-7 Rocket 4.4 04:43:57 18° N 04:46:59 49° E 04:51:14 10° SSE
Cosmos 192 4.3 04:42:34 10° SSW 04:47:28 82° ESE 04:52:24 10° NNE
Cosmos 1300 Rocket 3.5 04:44:26 10° S 04:48:51 83° E 04:53:16 10° N
Meteor 1-11 Rocket 4.1 04:46:17 10° S 04:52:04 66° E 04:57:45 10° NNE
Nadezhda 3 Rocket 4.3 04:46:00 10° N 04:52:23 71° E 04:58:43 10° SSE
SKYMED 3 4.5 04:57:55 10° SSE 05:02:16 88° ENE 05:04:36 27° NNW
Meteor 1-13 Rocket 4.2 04:56:24 10° NNW 05:02:24 83° W 05:08:19 10° S
Cosmos 1346 Rocket 4.4 05:05:51 21° SSW 05:05:51 21° SSW 05:07:22 10° SSW
Cosmos 1452 Rocket 3.8 05:04:24 15° NNW 05:08:49 66° ENE 05:14:03 10° SSE
Meteor 2-13 Rocket 4.4 05:04:00 10° S 05:10:10 87° W 05:16:22 10° N
Cosmos 2074 Rocket 4.3 05:04:48 10° SW 05:10:41 42° WNW 05:16:35 10° N
Tiangong 2 0.9 05:13:30 84° NNE 05:13:30 84° NNE 05:16:37 10° E
Meteor 2-4 Rocket 3.8 05:10:18 10° N 05:15:50 76° E 05:21:31 10° SSE
Cosmos 2369 Rocket 2.1 05:14:29 18° NNW 05:18:48 85° WSW 05:24:29 10° SSE
Cosmos 2341 Rocket 4.0 05:12:38 10° S 05:18:56 88° E 05:25:14 10° N
SKYMED 2 3.6 05:16:03 10° S 05:20:18 58° W 05:22:50 23° NNW
Cosmos 1603 4.1 05:19:00 26° WSW 05:21:31 39° WNW 05:26:49 10° N
Kosmos-1675 4.2 05:25:30 10° SSW 05:28:10 68° ESE 05:37:59 10° NE
Okean 2 4.1 05:24:36 10° N 05:28:43 55° E 05:32:47 10° SSE
NOAA 6 4.3 05:24:12 10° N 05:29:03 44° WNW 05:33:52 10° SW
Cosmos 44 3.4 05:26:16 10° SW 05:31:37 72° NW 05:36:49 10° NNE
SL-23 DEB 4.1 05:33:08 26° NNW 05:34:30 44° NNE 05:37:58 10° ESE
SL-24 R/B 4.3 05:34:15 10° N 05:39:38 73° WNW 05:44:12 10° SSW
Cosmos 1536 3.0 05:37:13 10° SSW 05:41:04 47° W 05:44:59 10° N
USA 129 1.7 05:39:51 10° SSE 05:41:57 78° ENE 05:42:55 28° N
USA 229 DEB 3.8 05:35:25 10° SSW 05:42:18 86° ESE 05:49:18 10° NE
USA 229 3.8 05:35:31 10° SSW 05:42:24 85° ESE 05:49:23 10° NE
Cosmos 1025 Rocket 3.0 05:38:46 10° NNW 05:43:05 60° W 05:47:22 10° S
CZ-4 R/B 2.2 05:39:20 10° NNE 05:43:12 52° E 05:46:59 10° S
Cosmos 1943 3.3 05:38:57 10° SW 05:44:26 54° WNW 05:49:59 10° NNE
Cosmos 2154 Rocket 4.2 05:38:58 10° SSW 05:44:52 45° WNW 05:50:47 10° N
Cosmos 1269 Rocket 4.2 05:43:28 10° SSW 05:48:44 76° ESE 05:54:02 10° NNE
YAOGAN 1 3.9 05:45:31 10° NNE 05:49:39 43° E 05:53:46 10° S
Cosmos 1633 3.7 05:48:12 10° SW 05:51:04 21° WNW 05:53:56 10° NNW
IRS-1A Rocket 4.4 05:49:34 10° NNE 05:55:19 89° W 06:01:09 10° SSW
Meteor 2-8 Rocket 4.4 05:49:42 10° N 05:55:53 77° W 06:02:01 10° S
Cosmos 1943 Rocket 2.1 05:51:37 10° NNW 05:57:10 88° WSW 06:02:40 10° SSE
Abrixas rocket 3.0 05:55:52 19° WNW 05:57:47 36° NNW 06:00:56 10° NE
SJ-12 4.3 05:53:54 10° NNE 05:58:03 71° E 06:02:12 10° S
Cosmos 468 4.5 05:53:37 10° SSW 05:58:50 66° WNW 06:04:08 10° NNE
DELTA 2 R/B(2) 3.8 05:59:40 14° WSW 06:01:36 51° S 06:03:15 10° E
Cosmos 1420 Rocket 4.0 05:56:51 10° NNW 06:02:06 72° WSW 06:07:15 10° S
Okean 1 Rocket 4.3 05:59:18 10° WSW 06:02:35 20° WNW 06:05:51 10° NNW
Cosmos 1544 Rocket 3.5 06:00:19 10° SSW 06:04:39 72° W 06:09:03 10° N
CZ-3 R/B 3.3 05:59:58 10° SW 06:05:26 18° SSW 06:08:19 10° SSE
Lacrosse 5 rocket 3.8 06:03:56 10° N 06:05:40 12° NNE 06:07:26 10° NE
Lacrosse 4 Rocket 1.6 06:03:33 10° NNW 06:07:42 69° ENE 06:11:44 10° SE
COSMO-SKYMED 1 4.1 06:05:40 10° SW 06:08:37 18° W 06:11:25 11° NW
USA 215 3.5 06:04:05 10° NE 06:10:20 49° NNW 06:16:33 10° WSW
Ariane Rocket 3.6 06:07:32 10° N 06:12:01 33° WNW 06:16:29 10° SW
SL-8 Rocket 4.1 06:08:02 10° SSW 06:14:10 58° W 06:20:19 10° N
CZ-2C R/B 2.5 06:10:03 10° NNE 06:15:15 90° W 06:20:17 10° SSW
SPOT 3 Rocket 3.7 06:10:12 10° NNE 06:15:23 81° ESE 06:20:31 10° SSW
Cosmos 1048 Rocket 3.9 06:11:18 10° SSW 06:16:24 68° WNW 06:21:36 10° NNE
Cosmos 1656 Rocket 4.1 06:14:09 10° NNW 06:19:48 67° ENE 06:25:27 10° SSE
AQUARIUS 4.1 06:19:00 10° N 06:23:30 73° WNW 06:27:58 10° SSW
Meteor 1-29 2.9 06:20:57 10° SSE 06:24:19 84° WSW 06:27:43 10° NNW
Cosmos 1500 3.3 06:21:21 10° S 06:25:06 78° E 06:28:53 10° N
Cosmos 1975 2.8 06:22:13 10° S 06:26:18 80° W 06:30:26 10° N
Cosmos 2366 rocket 4.1 06:20:27 10° SSW 06:26:41 64° W 06:33:00 10° N
Cosmos 1066 Rocket 4.5 06:23:23 10° N 06:28:47 71° E 06:34:16 10° SSE
Cosmos 1892 Rocket 4.3 06:24:56 10° NNW 06:28:57 34° W 06:32:59 10° SSW
Lacrosse 5 3.0 06:25:04 10° W 06:29:15 25° NNW 06:33:26 10° NNE
MSX 4.1 06:27:06 10° NNE 06:32:52 78° ESE 06:38:35 10° S
